Location: Ostrava
(49.8330°N, 18.2830°E)
Time: 15:23:11
(UTC+01:00)

Lacrosse 5 - Visible Passes

Search period start: 27 January 2015 00:00
Search period end: 06 February 2015 00:00
Orbit: 715 x 723 km, 57.0° (Epoch: 23 January)

Date Brightness Start Highest point End Pass type
(mag) Time Alt. Az. Time Alt. Az. Time Alt. Az.
27 Jan 3.7 03:46:18 27° ENE 03:46:18 27° ENE 03:48:37 10° ENE visible
27 Jan 2.3 05:25:30 37° WNW 05:26:50 45° NNW 05:31:42 10° ENE visible
28 Jan 4.9 02:55:01 11° ENE 02:55:01 11° ENE 02:55:13 10° ENE visible
28 Jan 2.4 04:34:13 50° NNE 04:34:13 50° NNE 04:38:20 10° NE visible
28 Jan 2.7 06:13:25 16° WNW 06:17:03 36° N 06:21:44 10° ENE visible
29 Jan 3.8 03:42:54 25° NE 03:42:54 25° NE 03:45:01 10° NE visible
29 Jan 2.6 05:22:05 33° NW 05:23:26 39° N 05:28:11 10° ENE visible
30 Jan 4.9 02:51:33 11° ENE 02:51:33 11° ENE 02:51:41 10° ENE visible
30 Jan 2.7 04:30:44 41° NNE 04:30:44 41° NNE 04:34:45 10° ENE visible
30 Jan 2.8 06:09:55 15° WNW 06:13:41 37° N 06:18:24 10° ENE visible
31 Jan 3.9 03:39:22 24° NE 03:39:22 24° NE 03:41:23 10° NE visible
31 Jan 2.8 05:18:33 30° NW 05:20:04 36° N 05:24:46 10° ENE visible
01 Feb 4.9 02:47:59 10° NE 02:47:59 10° NE 02:48:03 10° NE visible
01 Feb 2.9 04:27:10 37° N 04:27:10 37° N 04:31:14 10° ENE visible
01 Feb 2.7 06:06:21 14° NW 06:10:20 41° NNE 06:15:08 10° E visible
02 Feb 4.0 03:35:46 23° NE 03:35:46 23° NE 03:37:48 10° ENE visible
02 Feb 2.8 05:14:57 28° NW 05:16:44 37° N 05:21:27 10° ENE visible
03 Feb 4.9 02:44:22 10° NE 02:44:22 10° NE 02:44:26 10° NE visible
03 Feb 2.9 04:23:33 36° N 04:23:33 36° N 04:27:49 10° ENE visible
03 Feb 2.4 06:02:44 14° NW 06:06:54 50° NNE 06:11:50 10° E visible
04 Feb 4.0 03:32:09 23° NE 03:32:09 23° NE 03:34:17 10° ENE visible
04 Feb 2.7 05:11:21 28° NW 05:13:22 41° NNE 05:18:10 10° E visible
05 Feb 4.9 02:40:46 10° NE 02:40:46 10° NE 02:40:51 10° ENE visible
05 Feb 2.9 04:19:58 37° N 04:19:58 37° N 04:24:29 10° ENE visible
05 Feb 2.1 05:59:09 15° NW 06:03:24 67° NNE 06:08:26 10° ESE visible
